Simultaneous Nadir Overpasses (SNOs) Predictions

Prediction of SNOs between AQUA and METOP-B Satellite Orbit:

Table of predicted SNOs for the next 14.0 days since TLE Epoch: 4/25/2015
Index Date (AQUA) Time (AQUA) Lat,Lon (AQUA) SZA (AQUA ) Date (METOP-B) Time (METOP-B) Lat,Lon (METOP-B) SZA (METOP-B ) Distance(km) Time Diff (sec)
1 04/26/2015 05:38:41 -73.73, -89.96 119.71 04/26/2015 05:37:59 -73.77, -89.97 119.67 3.68 42
2 04/26/2015 06:28:10 73.82, 77.48 60.37 04/26/2015 06:28:37 73.84, 77.53 60.39 2.38 27
3 04/29/2015 01:12:56 -73.74, -23.54 120.61 04/29/2015 01:12:21 -73.75, -23.60 120.59 2.18 35
4 04/29/2015 02:02:25 73.83, 143.89 59.49 04/29/2015 02:02:59 73.82, 143.90 59.47 1.62 34
5 05/01/2015 20:47:10 -73.76, 42.86 121.45 05/01/2015 20:46:42 -73.77, 42.86 121.43 1.51 28
6 05/01/2015 21:36:39 73.86,-149.72 58.65 05/01/2015 21:37:20 73.84,-149.64 58.62 3.40 41
7 05/04/2015 16:21:22 -73.79, 109.23 122.25 05/04/2015 16:21:02 -73.78, 109.30 122.26 2.36 20
8 05/04/2015 17:10:50 73.84, -83.25 57.80 05/04/2015 17:11:40 73.85, -83.20 57.80 1.63 50
9 05/07/2015 11:05:59 73.37, 8.94 56.52 05/07/2015 11:04:50 73.32, 7.33 56.53 51.43 69
10 05/07/2015 11:55:33 -73.78, 175.70 123.06 05/07/2015 11:55:23 -73.78, 175.72 123.05 0.57 10
11 05/07/2015 12:45:01 73.84, -16.79 57.00 05/07/2015 12:46:01 73.85, -16.79 57.00 0.94 60




NCC Satellite Simultaneous Nadir Overpasses (SNOs) Prediction Service
